Pioche, Nevada Weather observations

Data are for observation ending at time listed.
 Day   Time    Ave.   Ave.  Ave.  Vector   Max.   Stn.    Total    Solar   Ave.  
  of    of     Air    Rel.  Wind   Wind    Wind   Baro.  Precip.   Rad.    Soil  
Year   Day     Temp.  Hum.  Speed  Dir.    Gust   Pres.                    Temp. 
2026   (PST)    F      %     mph   deg.    mph     mb.     in.     W/m2     F   
------------------------------------------------------------------------------
 124   10:50   62.9    31   12.6   115     26.9   814.1    0.00    1084    58.9
 124   11:00   63.1    30   12.5   113     20.9   814.1    0.00    1105    58.9
 124   11:10   63.0    29   12.7   111     22.0   814.0    0.00    1136    58.9
 124   11:20   63.4    28   11.3   112     20.2   813.8    0.00     777    58.9
 124   11:30   62.6    27   12.5   113     22.4   813.9    0.00     885    59.0
 124   11:40   63.0    26   11.2   122     24.3   813.8    0.00     913    59.0
 124   11:50   62.6    24   11.5   121     25.0   813.9    0.00    1056    59.1
 124   12:00   63.3    24   12.7   126     24.3   813.8    0.00    1110    59.1
 124   12:10   63.1    23   10.3   128     21.5   813.8    0.00    1124    59.1
 124   12:20   62.9    22   10.5   128     18.9   814.0    0.00    1114    59.2
 124   12:30   63.7    21   11.8   123     22.9   813.9    0.00    1098    59.2
 124   12:40   62.6    22   14.0   123     22.6   813.9    0.00    1083    59.2
 124   12:50   63.2    19   10.3   122     20.7   813.9    0.00    1077    59.3
 124   13:00   64.5    18    8.4   128     17.7   813.9    0.00    1063    59.3
 124   13:10   65.3    17   10.5   121     19.4   813.8    0.00    1062    59.3
 124   13:20   64.3    17   12.0   116     24.6   813.8    0.00    1071    59.3
 124   13:30   64.3    16    9.2   121     21.0   813.7    0.00    1034    59.4
 124   13:40   64.4    18    9.5   130     19.2   813.7    0.00    1008    59.4
 124   13:50   63.2    19    9.3   116     23.3   813.7    0.00     960    59.5
 124   14:00   63.2    19    9.0   117     21.2   813.6    0.00     871    59.5
 124   14:10   63.1    20   12.2   109     22.4   813.4    0.00     819    59.6
 124   14:20   63.3    20   11.0   124     20.5   813.4    0.00     884    59.6
 124   14:30   62.7    20   10.2   116     22.3   813.3    0.00     754    59.7
 124   14:40   62.6    20   10.3   112     22.3   813.1    0.00     771    59.8
 124   14:50   62.9    19    8.2   128     17.0   813.2    0.00     196    59.8
 124   15:00   62.7    18    7.9   144     18.6   813.2    0.00      96    59.9
 124   15:10   62.0    18    7.2   139     16.7   813.2    0.00      84    59.9
 124   15:20   62.3    17    7.9   146     18.9   813.2    0.00      64    60.0
 124   15:30   62.1    16    9.6   137     21.4   813.2    0.00      52    60.1
 124   15:40   61.9    15    7.5   143     17.3   813.1    0.00      55    60.1
 124   15:50   61.6    14    9.7   117     18.0   813.1    0.00      48    60.2
 124   16:00   61.4    14    7.2   141     15.5   813.1    0.00      43    60.2
 124   16:10   61.4    13    8.2   130     18.7   813.1    0.00      52    60.3
 124   16:20   61.0    12    7.0   148     14.6   813.2    0.00      44    60.3
 124   16:30   61.3    12    6.9   132     14.9   813.2    0.00      42    60.3
 124   16:40   61.2    13    6.4   138     13.0   813.2    0.00      39    60.4
 124   16:50   60.9    13    8.5   142     17.0   813.2    0.00      40    60.4
 124   17:00   60.6    12    8.4   136     15.9   813.1    0.00      39    60.4
 124   17:10   60.5    12    6.9   135     14.0   813.0    0.00      36    60.5
 124   17:20   60.3    14    5.6   139     11.7   812.9    0.00      55    60.5
 124   17:30   60.0    15    6.8   138     15.2   812.9    0.00      39    60.4
 124   17:40   59.6    15    7.9   134     15.9   812.9    0.00      75    60.4
 124   17:50   59.1    16    6.7   131     12.3   812.9    0.00     109    60.5
 124   18:00   58.7    18    6.4   130     11.6   812.8    0.00      81    60.5
 124   18:10   58.2    19    6.8   144     15.1   812.8    0.00      47    60.5
 124   18:20   57.5    20    7.6   136     16.6   812.7    0.00      15    60.6
 124   18:30   56.8    22    7.4   139     13.3   812.8    0.00       8    60.7
 124   18:40   56.3    23    5.8   137     12.1   812.8    0.00       2    60.7
 124   18:50   55.9    23    6.0   142     12.3   813.0    0.00       0    60.7
 124   19:00   55.6    23    4.7   138      9.9   813.1    0.00       0    60.8
 124   19:10   55.2    23    6.2   139     12.4   813.1    0.00       0    60.8
 124   19:20   54.9    23    7.1   140     15.6   813.2    0.00       0    60.8
 124   19:30   54.7    23    6.5   138     12.1   813.2    0.00       0    60.8
 124   19:40   54.4    24    4.8   135     11.0   813.3    0.00       0    60.8
 124   19:50   54.1    24    5.6   134     10.6   813.5    0.00       0    60.8
 124   20:00   54.0    25    6.4   142     13.0   813.6    0.00       0    60.8
 124   20:10   53.6    26    4.4   136      9.3   813.7    0.00       0    60.8
 124   20:20   53.0    27    4.7   128      9.5   813.9    0.00       0    60.8
 124   20:30   52.6    28    4.4   132      8.3   813.9    0.00       0    60.8
 124   20:40   52.2    30    5.6   129     10.2   814.0    0.00       0    60.7
 124   20:50   51.8    32    5.0   135      9.5   814.0    0.00       0    60.7
 124   21:00   51.7    33    6.5   123     12.0   814.1    0.00       0    60.7
 124   21:10   51.7    34    6.7   122     11.0   814.1    0.00       0    60.7
 124   21:20   51.7    33    7.1   125     15.9   814.1    0.00       0    60.7
 124   21:30   51.1    34    6.0   142     10.9   814.1    0.00       0    60.7
 124   21:40   50.9    34    7.1   138     12.0   814.1    0.00       0    60.7
 124   21:50   50.6    35    7.7   142     12.3   814.0    0.00       0    60.6
 124   22:00   50.7    34    8.0   137     14.0   814.0    0.00       0    60.6
 124   22:10   50.6    34    6.8   137     14.5   814.0    0.00       0    60.6
 124   22:20   50.2    36    6.8   137     14.2   814.0    0.00       0    60.6
 124   22:30   50.1    35    6.7   142     13.6   814.0    0.00       0    60.5
 124   22:40   50.5    34    5.9   148     12.3   814.1    0.00       0    60.5
 124   22:50   50.2    35    5.3   140      9.0   814.2    0.00       0    60.5
 124   23:00   49.6    36    6.2   143     13.4   814.2    0.00       0    60.5
 124   23:10   49.7    36    5.3   139      9.8   814.3    0.00       0    60.4
 124   23:20   49.6    36    5.1   139      8.8   814.3    0.00       0    60.4
 124   23:30   49.3    37    5.1   141      8.9   814.3    0.00       0    60.3
 124   23:40   49.2    37    4.5   140      8.1   814.4    0.00       0    60.3
 124   23:50   48.7    38    2.3   175      8.9   814.4    0.00       0    60.3
 125    0:00   48.8    37    2.2   142      4.5   814.4    0.00       0    60.2
 125    0:10   47.9    39    1.3    95      5.1   814.5    0.00       0    60.2
 125    0:20   45.0    45    2.8    95      5.4   814.4    0.00       0    60.2
 125    0:30   44.1    46    1.1   136      3.3   814.3    0.00       0    60.2
 125    0:40   44.1    47    1.3   178      3.9   814.2    0.00       0    60.1
 125    0:50   46.0    43    1.8   141      5.3   814.2    0.00       0    60.1
 125    1:00   45.6    44    0.3    86      1.3   814.2    0.00       0    60.0
 125    1:10   44.3    46    1.6    97      3.4   814.1    0.00       0    60.0
 125    1:20   43.7    48    1.0   149      2.9   814.0    0.00       0    60.0
 125    1:30   43.4    48    1.0   190      1.8   813.9    0.00       0    59.9
 125    1:40   44.0    47    1.6   152      4.0   813.8    0.00       0    59.9
 125    1:50   45.5    44    3.0   136      5.5   813.8    0.00       0    59.9
 125    2:00   45.8    43    3.9   136      6.7   813.8    0.00       0    59.8
 125    2:10   46.3    43    3.2   136      8.1   813.8    0.00       0    59.8
 125    2:20   46.3    43    3.5   134      7.0   813.7    0.00       0    59.7
 125    2:30   46.3    43    4.9   125      9.3   813.7    0.00       0    59.7
 125    2:40   46.8    42    6.1   124      9.6   813.7    0.00       0    59.7
 125    2:50   46.4    43    5.8   127      9.0   813.7    0.00       0    59.6
 125    3:00   46.1    45    5.8   129      9.1   813.8    0.00       0    59.6
 125    3:10   45.8    46    4.7   130      9.1   813.7    0.00       0    59.5
 125    3:20   45.5    46    4.7   130      8.7   813.7    0.00       0    59.5
 125    3:30   45.2    47    3.1   128      6.6   813.8    0.00       0    59.5
 125    3:40   41.7    52    1.9   313      4.1   813.9    0.00       0    59.4
 125    3:50   40.1    59    0.1   270      2.8   813.8    0.00       0    59.4
 125    4:00   41.4    55    2.8   135      5.9   813.8    0.00       0    59.4
 125    4:10   43.4    51    5.4   141      8.0   813.8    0.00       0    59.3
 125    4:20   43.3    51    4.1   140      7.8   813.8    0.00       0    59.3
 125    4:30   43.1    52    2.0   131      5.2   813.8    0.00       0    59.3
 125    4:40   41.6    54    0.7   329      2.9   813.9    0.00       3    59.2
 125    4:50   40.7    56    0.9    93      3.0   813.9    0.00       9    59.1
 125    5:00   41.5    55    1.5   101      4.8   814.0    0.00      13    59.1
 125    5:10   42.4    54    1.7    97      3.7   814.0    0.00      20    59.1
 125    5:20   41.6    55    0.5    82      1.8   814.1    0.00      27    59.0
 125    5:30   41.7    55    0.5    11      1.8   814.2    0.00      33    59.0
 125    5:40   41.7    56    1.3    72      4.2   814.3    0.00      36    58.9
 125    5:50   41.8    55    0.6    76      2.3   814.3    0.00      42    58.9
 125    6:00   42.6    55    2.2    68      3.9   814.4    0.00     173    58.9
 125    6:10   43.8    53    3.1    77      6.3   814.4    0.00     161    58.8
 125    6:20   45.3    51    3.1    82      5.5   814.4    0.00     155    58.8
 125    6:30   46.8    50    3.3    97      5.6   814.4    0.00     123    58.7
 125    6:40   47.8    48    5.0   113      7.7   814.5    0.00     232    58.7
 125    6:50   48.6    47    5.5   121      8.8   814.5    0.00     396    58.7
 125    7:00   48.7    46    4.6   128      8.7   814.5    0.00     282    58.6
 125    7:10   49.0    46    4.3   130      8.6   814.5    0.00     519    58.6
 125    7:20   50.5    44    4.9   131      9.5   814.6    0.00     541    58.6
 125    7:30   50.5    43    4.8   136      8.9   814.6    0.00     564    58.6
 125    7:40   51.0    42    6.0   131     10.5   814.5    0.00     632    58.5
 125    7:50   51.6    41    6.0   144     11.0   814.6    0.00     665    58.5
 125    8:00   52.1    39    5.7   132     10.4   814.6    0.00     703    58.5
 125    8:10   52.3    39    5.7   143     10.6   814.8    0.00     735    58.5
 125    8:20   52.7    38    5.9   140     11.2   814.9    0.00     768    58.5
 125    8:30   53.2    37    6.2   156     12.8   814.8    0.00     802    58.5
 125    8:40   52.4    37    7.3   130     12.8   814.8    0.00     834    58.5
 125    8:50   52.3    37    6.4   144     11.2   814.8    0.00     864    58.5
 125    9:00   52.9    36    8.2   123     13.0   814.7    0.00     892    58.5
 125    9:10   53.1    35    7.0   127     12.7   814.7    0.00     920    58.4
 125    9:20   53.6    35    6.3   144     13.4   814.7    0.00     946    58.4
 125    9:30   54.7    35    6.0   120     11.9   814.7    0.00     969    58.4
 125    9:40   54.9    33    6.2   112     11.4   814.9    0.00     992    58.4
 125    9:50   54.9    33    5.3   132     10.1   814.8    0.00    1013    58.4
 125   10:00   56.2    31    5.3   145     12.2   814.9    0.00    1033    58.4
 125   10:10   56.0    31    6.4   132     12.2   814.9    0.00    1053    58.4
 125   10:20   55.9    29    4.6   113     13.3   814.8    0.00    1069    58.4
 125   10:30   56.9    29    5.9   101     13.7   814.8    0.00    1083    58.3
 125   10:40   58.1    28    4.5   141     10.5   814.7    0.00    1095    58.3

Return to Pioche, Nevada graphs page.


Western Regional Climate Center,wrcc@dri.edu